Home > Time Zones > World Clock > Weather > Japan > Naha > Past weeks

Flag for Japan Weather past 2 weeks in Naha, Okinawa, Japan

Now
61 °F

Partly cloudy.


Feels Like: 61 °F
Forecast: 59 / 64 °F
Wind: 13 mph from Northeast

Location: Naha Airport

Current Time: Mar 2, 2015 at 6:57:14 AM

Latest Report: Mar 2, 2015 at 6:30 AM


Visibility: N/A

Pressure: 30.07 "Hg

Humidity: 63%

Dew point: 48 °F

Location of NahaLocation

Historic Weather in Naha — Graph

°F

Naha temperature yesterday

Maximum temperature yesterday: 72 °F (at 12:00 AM)
Minimum temperature yesterday: 59 °F (at 8:00 PM)
Average temperature yesterday: 64 °F

Past Weeks' High & Low Weather Summary

 TemperatureHumidityPressure
High75 °F (Feb 26, 10:30 AM)94% (Feb 23, 4:30 AM)30.24 "Hg (Feb 23, 4:30 AM)
Low55 °F (Feb 20, 2:30 AM)40% (Feb 20, 5:00 PM)29.86 "Hg (Feb 24, 3:30 PM)
Average66 °F70%30.05 "Hg
* Reported Feb 15 6:00 AM — Mar 2 6:00 AM, Naha, Weather by CustomWeather, © 2015

Note: Actual official high and low records may vary slightly from our data, if they occured in-between our weather recording intervals... More about our weather records

Advertising

Naha weather history for previous 24 hours

 ConditionsComfort  
Time TempWeatherWind HumidityBarometerVisibility
6:00 AM
Mon, Mar 2
59 °FPartly cloudy.16 mph68%30.07 "HgN/A
5:30 AM59 °FPartly cloudy.15 mph68%30.07 "HgN/A
4:30 AM59 °FLight rain. Partly cloudy.18 mph68%30.07 "HgN/A
4:00 AM61 °FPartly cloudy.18 mph63%30.09 "HgN/A
3:30 AM61 °FSprinkles. Partly cloudy.16 mph63%30.07 "HgN/A
3:00 AM61 °FScattered showers. Partly cloudy.14 mph63%30.07 "HgN/A
2:30 AM61 °FPartly cloudy.16 mph63%30.07 "HgN/A
2:00 AM61 °FPartly cloudy.17 mph68%30.07 "HgN/A
1:30 AM61 °FPartly cloudy.16 mph63%30.07 "HgN/A
1:00 AM61 °FPartly cloudy.18 mph63%30.09 "HgN/A
12:30 AM61 °FSprinkles. Partly cloudy.17 mph68%30.09 "HgN/A
12:00 AM61 °FPartly cloudy.18 mph63%30.09 "HgN/A
11:30 PM
Sun, Mar 1
61 °FPartly cloudy.20 mph68%30.07 "HgN/A
11:00 PM61 °FPassing clouds.20 mph68%30.09 "HgN/A
10:30 PM61 °FPartly cloudy.18 mph68%30.07 "HgN/A
10:00 PM61 °FPassing clouds.21 mph68%30.09 "HgN/A
9:30 PM61 °FPassing clouds.23 mph68%30.09 "HgN/A
9:00 PM61 °FPartly cloudy.24 mph68%30.09 "HgN/A
8:30 PM61 °FPartly cloudy.17 mph72%30.09 "HgN/A
8:00 PM59 °FLight rain. Partly cloudy.17 mph88%30.09 "HgN/A
7:30 PM61 °FLight rain. Partly cloudy.21 mph72%30.09 "HgN/A
7:00 PM61 °FPassing clouds.18 mph72%30.07 "HgN/A
6:30 PM61 °FPartly cloudy.21 mph72%30.07 "HgN/A
6:00 PM61 °FBroken clouds.21 mph68%30.07 "HgN/A
5:30 PM61 °FBroken clouds.23 mph72%30.04 "HgN/A
5:00 PM61 °FPartly sunny.22 mph72%30.04 "HgN/A
4:30 PM61 °FPartly sunny.23 mph72%30.04 "HgN/A
4:00 PM61 °FPartly sunny.23 mph72%30.04 "HgN/A
3:30 PM61 °FPartly sunny.23 mph77%30.04 "HgN/A
3:00 PM61 °FBroken clouds.23 mph72%30.04 "HgN/A
2:30 PM61 °FSprinkles. Broken clouds.23 mph77%30.04 "HgN/A
2:00 PM61 °FSprinkles. Broken clouds.25 mph77%30.04 "HgN/A
1:30 PM61 °FSprinkles. Broken clouds.25 mph83%30.07 "HgN/A
1:00 PM61 °FSprinkles. Partly sunny.25 mph77%30.07 "HgN/A
12:30 PM63 °FSprinkles. Partly sunny.22 mph77%30.07 "HgN/A
12:00 PM63 °FSprinkles. Partly sunny.21 mph77%30.07 "HgN/A
11:30 AM63 °FPartly sunny.23 mph77%30.07 "HgN/A
11:00 AM63 °FSprinkles. Partly sunny.21 mph83%30.07 "HgN/A
10:30 AM63 °FSprinkles. Partly sunny.22 mph83%30.09 "HgN/A
10:00 AM63 °FPartly sunny.23 mph83%30.07 "HgN/A
9:30 AM63 °FSprinkles. Partly sunny.23 mph83%30.07 "HgN/A
9:00 AM63 °FSprinkles. Partly sunny.23 mph83%30.04 "HgN/A
8:30 AM64 °FSprinkles. Partly sunny.23 mph83%30.04 "HgN/A
8:00 AM64 °FSprinkles. Partly sunny.24 mph83%30.04 "HgN/A
7:30 AM64 °FPartly sunny.23 mph83%30.01 "HgN/A
7:00 AM64 °FSprinkles. Broken clouds.21 mph88%30.01 "Hg4 mi
6:30 AM66 °FSprinkles. Passing clouds.20 mph83%30.01 "HgN/A
6:00 AM66 °FRain showers. Partly cloudy.17 mph88%29.98 "HgN/A
Weather by CustomWeather, © 2015

See weather overviewHow to use our weather pages